[[{"header":{"parameterUnit":"m.s-1","parameterCategory":1,"la1":30.2991,"la2":30.254,"lo1":-89.0895,"lo2":-89.0444,"dy":0.0017,"dx":0.0017,"nx":28,"ny":28,"refTime":"2024-08-23T03:00:00:Z","depth":0,"parameterNumber":2,"parameterNumberName":"U-component_of_WINDS"},"data":[0,0,0,0,0,0,0,0,0,0,0,0,0,0,0,0,0,0,0,0,0,0,0,0,0,0,0,0,0,0,0,0,0,0,0,0,0,0,0,0,0,0,0,0,0,0,0,0,0,0,0,0,0,0,0,0,0,0,-5.8791,-5.8791,0,-5.8777,-5.8777,-5.8777,-5.8609,-5.8605,-5.8601,-5.8597,-5.8586,-5.8589,-5.8593,0,0,0,0,0,0,0,0,0,0,0,0,0,-5.8676,-5.8679,-5.8791,-5.8791,-5.8791,-5.8777,-5.8777,-5.8777,-5.861,-5.8605,-5.86,-5.8595,-5.8585,-5.8589,-5.8593,0,0,0,0,0,0,0,0,0,0,0,0,0,-5.8701,-5.868,-5.8791,-5.8706,-5.8698,-5.8777,-5.8777,-5.8777,-5.8611,-5.8605,-5.8598,-5.8592,-5.8583,-5.8589,-5.8594,-5.8755,0,0,-5.8611,-5.8613,0,0,0,0,0,0,0,0,-5.8699,-5.8705,-5.8719,-5.8712,-5.8703,-5.8688,-5.8732,-5.877,-5.8613,-5.8644,-5.8597,-5.8589,-5.8625,-5.8627,-5.8638,-5.8755,-5.8754,-5.8611,-5.8615,-5.8617,-5.8619,0,0,0,0,0,0,0,-5.8698,-5.8705,-5.8786,-5.8719,-5.871,-5.8669,-5.8666,-5.8739,-5.8671,-5.8641,-5.8629,-5.8629,-5.862,-5.8634,-5.8637,-5.8754,-5.8611,-5.8616,-5.8619,-5.8622,-5.9002,-5.9008,0,0,0,0,0,0,-5.8708,-5.8704,-5.8786,-5.8785,-5.8686,-5.8676,-5.8672,-5.87,-5.8669,-5.8659,-5.8635,-5.8622,-5.8627,-5.8631,-5.8636,-5.8823,-5.8617,-5.8622,-5.8625,-5.8995,-5.9003,-5.9011,0,0,0,0,0,0,-5.8706,-5.8717,-5.8787,-5.8741,-5.8747,-5.8685,-5.8717,-5.8703,-5.8716,-5.8665,-5.8652,-5.8661,-5.8622,-5.8628,-5.8727,-5.882,-5.8625,-5.863,-5.8987,-5.8998,-5.9007,-5.9198,0,0,0,0,0,0,-5.8703,-5.8717,-5.8777,-5.8744,-5.875,-5.8877,-5.8723,-5.8707,-5.8726,-5.8708,-5.8686,-5.8676,-5.8618,-5.8719,-5.8732,-5.8824,-5.8634,-5.8978,-5.8992,-5.9004,-5.9183,-5.9214,-5.924,0,0,0,0,0,-5.87,-5.8832,-5.8781,-5.8792,-5.8824,-5.8883,-5.8887,-5.8816,-5.8734,-5.8794,-5.8761,-5.8677,-5.8808,-5.8731,-5.8744,-5.8839,-5.8972,-5.8988,-5.9003,-5.9171,-5.9208,-5.9239,0,0,0,0,0,0,-5.8878,-5.8826,-5.8769,-5.8894,-5.8894,-5.8855,-5.8928,-5.8858,-5.8882,-5.8865,-5.8777,-5.8773,-5.8886,-5.8872,-5.8787,-5.8993,-5.8875,-5.8894,-5.8999,-5.9033,-5.9061,-5.9063,-5.8638,0,0,0,0,0,-5.8932,-5.8984,-5.8935,-5.9051,-5.9053,-5.8992,-5.9015,-5.896,-5.8957,-5.8957,-5.893,-5.8932,-5.8973,-5.9002,-5.9037,-5.918,-5.9174,-5.9252,-5.928,-5.9304,-5.9321,-5.9397,-5.9431,-5.9061,-5.9061,-5.9061,0,0,-5.9044,-5.9022,-5.906,-5.9086,-5.908,-5.9136,-5.8993,-5.9058,-5.9099,-5.8967,-5.9058,-5.9039,-5.9035,-5.9157,-5.9209,-5.9148,-5.9422,-5.9323,-5.9342,-5.9347,-5.9416,-5.9451,-5.9483,-5.9072,-5.907,-5.9068,0,0,-5.9277,-5.9265,-5.936,-5.9357,-5.9348,-5.9306,-5.9329,-5.93,-5.9283,-5.9372,-5.9274,-5.9322,-5.9395,-5.9396,-5.9406,-5.964,-5.9564,-5.9654,-5.9802,-5.9877,-5.9906,-5.9931,-6.0016,-6.0047,-5.9671,-5.9672,-5.9672,0,-5.9418,-5.9498,-5.9418,-5.949,-5.9505,-5.9386,-5.9482,-5.9483,-5.9488,-5.9501,-5.9433,-5.9522,-5.951,-5.9631,-5.9688,-5.97,-5.9724,-5.9657,-5.9908,-5.9932,-5.9955,-6.0035,-6.0067,-5.9683,-5.9682,-5.968,-5.9679,0,-5.9672,-5.9729,-5.9806,-5.9813,-5.9836,-5.992,-5.9854,-5.9888,-5.9831,-5.9797,-5.989,-5.9872,-5.9902,-5.9926,-5.9872,-6.004,-6.0003,-5.9923,-5.9802,-6.0003,-6.0076,-6.0106,-5.9699,-5.9695,-5.9691,-5.9689,0,0,-6.0018,-5.9978,-6.0008,-6.001,-5.9992,-6.0035,-6.0114,-6.0142,-6.0173,-6.018,-6.0245,-6.0309,-6.0235,-6.0247,-6.0191,-6.0257,-6.0445,-6.0168,-6.0167,-6.0221,-6.0629,-6.0691,-6.0727,-6.0393,-6.0399,-6.0403,-6.063,0,-6.0243,-6.0374,-6.0305,-6.0446,-6.0498,-6.0387,-6.0455,-6.0453,-6.0423,-6.0463,-6.043,-6.0477,-6.0375,-6.0382,-6.0441,-6.0409,-6.0525,-6.0392,-6.0454,-6.0457,-6.046,-6.0765,-6.083,-6.1045,-6.0658,-6.0663,-6.0666,0,-6.0523,-6.0542,-6.0688,-6.0661,-6.068,-6.0743,-6.0763,-6.0803,-6.0798,-6.0771,-6.0785,-6.0714,-6.0791,-6.0671,-6.0776,-6.0687,-6.0708,-6.0696,-6.0703,-6.0707,-6.0575,-6.0779,-6.1111,-6.1144,-6.071,-6.0707,-6.0704,0,-6.0762,-6.0824,-6.0919,-6.0924,-6.0894,-6.0941,-6.0931,-6.0919,-6.0941,-6.0959,-6.0972,-6.0999,-6.1015,-6.1038,-6.0977,-6.0896,-6.1091,-6.0966,-6.1072,-6.1075,-6.112,-6.1118,-6.1462,-6.1132,-6.1132,-6.1131,-6.113,0,-6.1022,-6.1116,-6.1026,-6.1085,-6.1188,-6.1107,-6.1211,-6.1189,-6.118,-6.1233,-6.1138,-6.1191,-6.1106,-6.1151,-6.1104,-6.1199,-6.1206,-6.1188,-6.1175,-6.1197,-6.12,-6.1211,-6.1195,-6.114,-6.1138,-6.1136,-6.1135,0,-6.1307,-6.125,-6.1347,-6.131,-6.1303,-6.1381,-6.135,-6.1404,-6.1367,-6.1436,-6.1447,-6.139,-6.1438,-6.1379,-6.1421,-6.1389,-6.1519,-6.1482,-6.1521,-6.151,-6.1621,-6.1612,-6.1985,-6.203,-6.1671,-6.1674,-6.1677,0,-6.1477,-6.1546,-6.1517,-6.1546,-6.1541,-6.1589,-6.161,-6.1533,-6.1559,-6.1559,-6.1613,-6.1652,-6.168,-6.1761,-6.1724,-6.1756,-6.1721,-6.1849,-6.1725,-6.1746,-6.1724,-6.1721,-6.1728,-6.1875,-6.1879,-6.1883,-6.1886,0,-6.1785,-6.1753,-6.1786,-6.1811,-6.1839,-6.1854,-6.1863,-6.1892,-6.1812,-6.1847,-6.1893,-6.1915,-6.1957,-6.1998,-6.202,-6.201,-6.1937,-6.1925,-6.1951,-6.1976,-6.1996,-6.1987,-6.1591,-6.1917,-6.1914,-6.1912,-6.191,-6.1909,-6.2018,-6.2075,-6.2063,-6.2104,-6.2102,-6.2113,-6.2161,-6.213,-6.2167,-6.2195,-6.2148,-6.2208,-6.2201,-6.2223,-6.2222,-6.2268,-6.2213,-6.2251,-6.2261,-6.2272,-6.2289,-6.1987,-6.2272,-6.2271,-6.227,-6.2269,-6.2268,0,-6.2321,-6.2308,-6.2347,-6.2361,-6.2394,-6.2319,-6.2325,-6.2357,-6.241,-6.241,-6.2439,-6.2493,-6.2532,-6.2498,-6.253,-6.2574,-6.2541,-6.2585,-6.2582,-6.2581,-6.2336,-6.231,-6.2611,-6.2611,-6.2611,-6.2611,-6.2611,-6.2611,-6.2483,-6.2576,-6.2544,-6.2635,-6.2621,-6.2677,-6.2687,-6.2697,-6.2696,-6.2761,-6.2792,-6.2769,-6.2756,-6.2786,-6.2819,-6.2808,-6.2825,-6.2882,-6.286,-6.2632,-6.2598,-6.2566,-6.2541,-6.2886,-6.2886,-6.31,-6.3102,-6.3104]},{"header":{"parameterUnit":"m.s-1","parameterCategory":1,"la1":30.2991,"la2":30.254,"lo1":-89.0895,"lo2":-89.0444,"dy":0.0017,"dx":0.0017,"nx":28,"ny":28,"refTime":"2024-08-23T03:00:00:Z","depth":0,"parameterNumber":3,"parameterNumberName":"V-component_of_WINDS"},"data":[0,0,0,0,0,0,0,0,0,0,0,0,0,0,0,0,0,0,0,0,0,0,0,0,0,0,0,0,0,0,0,0,0,0,0,0,0,0,0,0,0,0,0,0,0,0,0,0,0,0,0,0,0,0,0,0,0,0,-1.2156,-1.2156,0,-1.2136,-1.2136,-1.2136,-1.211,-1.211,-1.211,-1.2109,-1.209,-1.2089,-1.2089,0,0,0,0,0,0,0,0,0,0,0,0,0,-1.2171,-1.2171,-1.2156,-1.2156,-1.2155,-1.2136,-1.2136,-1.2136,-1.211,-1.211,-1.2109,-1.2109,-1.209,-1.2089,-1.2089,0,0,0,0,0,0,0,0,0,0,0,0,0,-1.2159,-1.2171,-1.2156,-1.214,-1.2139,-1.2136,-1.2136,-1.2135,-1.2111,-1.211,-1.2109,-1.2109,-1.209,-1.2089,-1.2089,-1.21,0,0,-1.2089,-1.2089,0,0,0,0,0,0,0,0,-1.216,-1.2159,-1.2143,-1.2141,-1.214,-1.2125,-1.2134,-1.2124,-1.2111,-1.2121,-1.2109,-1.2108,-1.2102,-1.2101,-1.2098,-1.2099,-1.2099,-1.2089,-1.2088,-1.2088,-1.2088,0,0,0,0,0,0,0,-1.2161,-1.2159,-1.2148,-1.2143,-1.2141,-1.2134,-1.2132,-1.2132,-1.2115,-1.212,-1.2118,-1.2116,-1.2101,-1.2099,-1.2098,-1.2098,-1.2089,-1.2088,-1.2088,-1.2088,-1.2106,-1.2106,0,0,0,0,0,0,-1.2164,-1.216,-1.2149,-1.2147,-1.2148,-1.2134,-1.2132,-1.213,-1.2115,-1.2112,-1.2117,-1.2115,-1.2099,-1.2098,-1.2097,-1.2108,-1.2088,-1.2088,-1.2088,-1.2105,-1.2106,-1.2106,0,0,0,0,0,0,-1.2164,-1.2163,-1.2149,-1.2153,-1.2151,-1.2135,-1.2133,-1.213,-1.2128,-1.2113,-1.211,-1.2118,-1.2099,-1.2097,-1.2099,-1.2107,-1.2088,-1.2088,-1.2104,-1.2105,-1.2106,-1.213,0,0,0,0,0,0,-1.2165,-1.2163,-1.2168,-1.2154,-1.2151,-1.2152,-1.2134,-1.213,-1.2128,-1.2125,-1.2113,-1.211,-1.2098,-1.21,-1.2099,-1.2106,-1.2088,-1.2104,-1.2105,-1.2106,-1.2128,-1.2131,-1.2134,0,0,0,0,0,-1.2165,-1.2176,-1.2168,-1.2167,-1.2156,-1.2153,-1.2151,-1.2137,-1.2128,-1.2132,-1.2122,-1.211,-1.2106,-1.21,-1.2099,-1.2106,-1.2103,-1.2104,-1.2106,-1.2127,-1.2131,-1.2134,0,0,0,0,0,0,-1.2192,-1.2174,-1.2165,-1.2171,-1.2163,-1.2149,-1.2153,-1.2142,-1.2137,-1.2135,-1.2118,-1.2116,-1.212,-1.2113,-1.2107,-1.2115,-1.2103,-1.2104,-1.2119,-1.2123,-1.2126,-1.2127,-1.2088,0,0,0,0,0,-1.2198,-1.2197,-1.2181,-1.2188,-1.2185,-1.217,-1.2168,-1.2158,-1.2149,-1.2146,-1.2136,-1.2129,-1.2125,-1.2124,-1.212,-1.2127,-1.2124,-1.2132,-1.2134,-1.2137,-1.2138,-1.214,-1.2143,-1.2111,-1.2111,-1.2111,0,0,-1.2211,-1.2201,-1.2202,-1.2193,-1.2186,-1.2185,-1.2167,-1.2167,-1.2166,-1.2146,-1.2147,-1.214,-1.213,-1.2134,-1.2136,-1.2129,-1.2146,-1.2139,-1.2141,-1.214,-1.2141,-1.2145,-1.2147,-1.2111,-1.2111,-1.2111,0,0,-1.2235,-1.2228,-1.2232,-1.2225,-1.2214,-1.2204,-1.2205,-1.2191,-1.2185,-1.2186,-1.217,-1.2169,-1.2164,-1.2157,-1.2153,-1.2173,-1.2161,-1.2172,-1.2187,-1.2189,-1.2192,-1.2194,-1.22,-1.2202,-1.2173,-1.2173,-1.2173,0,-1.2253,-1.2251,-1.2235,-1.2236,-1.2232,-1.2213,-1.2217,-1.2211,-1.22,-1.2197,-1.219,-1.2182,-1.2175,-1.2176,-1.2181,-1.2179,-1.2179,-1.2173,-1.2192,-1.2194,-1.2196,-1.2202,-1.2204,-1.2175,-1.2174,-1.2174,-1.2174,0,-1.2273,-1.2271,-1.2276,-1.2265,-1.2261,-1.2264,-1.2248,-1.2246,-1.2236,-1.2226,-1.2226,-1.2216,-1.221,-1.2209,-1.22,-1.2209,-1.2205,-1.2196,-1.2182,-1.2201,-1.2205,-1.2208,-1.2177,-1.2176,-1.2176,-1.2175,0,0,-1.2313,-1.2292,-1.2294,-1.2288,-1.2274,-1.2273,-1.2274,-1.2267,-1.2265,-1.2258,-1.2257,-1.2253,-1.2243,-1.2239,-1.2228,-1.223,-1.2245,-1.222,-1.2219,-1.2224,-1.2253,-1.226,-1.2263,-1.2237,-1.2237,-1.2238,-1.2253,0,-1.2333,-1.2333,-1.2319,-1.2323,-1.232,-1.2302,-1.2302,-1.2294,-1.2285,-1.2281,-1.2271,-1.2267,-1.2256,-1.2252,-1.2253,-1.2243,-1.225,-1.2241,-1.2236,-1.2236,-1.2238,-1.2265,-1.2273,-1.2288,-1.2255,-1.2256,-1.2256,0,-1.2357,-1.235,-1.2354,-1.2338,-1.2337,-1.2338,-1.2329,-1.2326,-1.2316,-1.2309,-1.2303,-1.2291,-1.229,-1.2278,-1.2276,-1.227,-1.2267,-1.2261,-1.2261,-1.226,-1.2247,-1.2264,-1.2293,-1.2295,-1.2259,-1.2259,-1.2258,0,-1.2385,-1.2376,-1.2377,-1.2373,-1.2355,-1.2356,-1.2349,-1.2337,-1.2334,-1.2326,-1.2323,-1.2316,-1.2312,-1.2307,-1.2292,-1.2285,-1.2292,-1.2279,-1.2285,-1.2286,-1.2287,-1.2287,-1.2316,-1.2287,-1.2287,-1.2287,-1.2286,0,-1.2408,-1.2411,-1.2389,-1.2389,-1.2391,-1.2374,-1.2376,-1.2367,-1.2357,-1.2355,-1.2339,-1.2338,-1.2319,-1.2315,-1.2304,-1.2303,-1.2302,-1.2296,-1.2293,-1.2297,-1.2298,-1.2294,-1.2293,-1.2287,-1.2287,-1.2287,-1.2287,0,-1.2439,-1.2425,-1.2424,-1.2407,-1.2403,-1.2405,-1.239,-1.239,-1.2379,-1.2376,-1.2375,-1.2358,-1.2352,-1.2337,-1.2328,-1.2321,-1.2323,-1.2318,-1.2326,-1.2324,-1.2331,-1.233,-1.2358,-1.236,-1.233,-1.2331,-1.2331,0,-1.2455,-1.2457,-1.2439,-1.2437,-1.243,-1.2426,-1.2421,-1.2404,-1.2401,-1.2388,-1.2388,-1.2381,-1.2375,-1.2367,-1.2354,-1.2346,-1.234,-1.235,-1.2339,-1.2343,-1.2339,-1.2339,-1.2338,-1.2353,-1.2353,-1.2353,-1.2354,0,-1.2485,-1.2477,-1.2471,-1.2462,-1.2457,-1.245,-1.2442,-1.244,-1.2421,-1.2417,-1.2411,-1.2406,-1.2396,-1.2389,-1.2379,-1.2371,-1.2359,-1.2357,-1.2358,-1.2362,-1.2367,-1.2363,-1.2332,-1.2357,-1.2356,-1.2356,-1.2356,-1.2356,-1.2508,-1.2507,-1.2495,-1.2489,-1.248,-1.2472,-1.247,-1.2459,-1.2453,-1.2443,-1.2434,-1.2428,-1.2417,-1.2402,-1.2395,-1.239,-1.2384,-1.2386,-1.2386,-1.2386,-1.2388,-1.2368,-1.2389,-1.2388,-1.2388,-1.2388,-1.2388,0,-1.2535,-1.2526,-1.252,-1.2508,-1.2503,-1.2492,-1.2481,-1.2478,-1.2473,-1.2463,-1.2456,-1.2449,-1.2441,-1.2427,-1.2419,-1.2417,-1.2411,-1.2416,-1.2415,-1.2413,-1.2394,-1.2394,-1.242,-1.242,-1.242,-1.242,-1.242,-1.242,-1.2549,-1.2547,-1.2538,-1.2532,-1.2522,-1.2516,-1.2511,-1.2504,-1.2495,-1.2487,-1.2481,-1.2471,-1.2459,-1.245,-1.2442,-1.2438,-1.2435,-1.2441,-1.2435,-1.2418,-1.2415,-1.2412,-1.2411,-1.2441,-1.2441,-1.2454,-1.2454,-1.2454]}]]